When you browse on this site, cookies collect data to enhance your experience and personalize the content and advertising you see.
Visit our Privacy Policy to learn more. By continuing to use the site, you agree to this use of cookies and data.
  • In Hungary
  • List of Countries
  • For 7 days
  • Water Temperature
  • Weather Map
  • News
  • Weather Widgets
  • user-avatar
    Login

    Hourly Weather Kabrai

    Today, 13 November, Wednesday

    Time Temperature Precipitation Wind Pressure Humidity
    00:00 +25°C° 0 mm 1 mps 747 mmHg 46%
    01:00 +23°C° 0 mm 0 mps 747 mmHg 48%
    02:00 +22°C° 0 mm 0 mps 747 mmHg 49%
    03:00 +22°C° 0 mm 0 mps 747 mmHg 50%
    04:00 +22°C° 0 mm 0 mps 747 mmHg 51%
    05:00 +21°C° 0 mm 0 mps 747 mmHg 52%
    06:00 +22°C° 0 mm 0 mps 748 mmHg 50%
    07:00 +24°C° 0 mm 0 mps 749 mmHg 47%
    08:00 +27°C° 0 mm 1 mps 749 mmHg 44%
    09:00 +28°C° 0 mm 1 mps 749 mmHg 41%
    10:00 +28°C° 0 mm 0 mps 749 mmHg 37%
    11:00 +30°C° 0 mm 0 mps 749 mmHg 34%
    12:00 +32°C° 0 mm 1 mps 748 mmHg 32%
    13:00 +34°C° 0 mm 2 mps 748 mmHg 30%
    14:00 +34°C° 0 mm 2 mps 747 mmHg 27%
    15:00 +32°C° 0 mm 2 mps 747 mmHg 30%
    16:00 +31°C° 0 mm 2 mps 747 mmHg 33%
    17:00 +29°C° 0 mm 2 mps 747 mmHg 40%
    18:00 +29°C° 0 mm 2 mps 748 mmHg 41%
    19:00 +28°C° 0 mm 2 mps 748 mmHg 43%
    20:00 +27°C° 0 mm 2 mps 749 mmHg 45%
    21:00 +26°C° 0 mm 2 mps 749 mmHg 45%
    22:00 +26°C° 0 mm 1 mps 749 mmHg 46%
    23:00 +25°C° 0 mm 1 mps 749 mmHg 47%

    Tomorrow, 14 November, Thursday

    Time Temperature Precipitation Wind Pressure Humidity
    00:00 +25°C° 0 mm 1 mps 748 mmHg 46%
    01:00 +25°C° 0 mm 1 mps 748 mmHg 46%
    02:00 +24°C° 0 mm 1 mps 748 mmHg 46%
    03:00 +24°C° 0 mm 1 mps 748 mmHg 46%
    04:00 +24°C° 0 mm 1 mps 748 mmHg 47%
    05:00 +23°C° 0 mm 1 mps 748 mmHg 47%
    06:00 +24°C° 0 mm 1 mps 748 mmHg 45%
    07:00 +25°C° 0 mm 1 mps 749 mmHg 43%
    08:00 +26°C° 0 mm 1 mps 750 mmHg 41%
    09:00 +28°C° 0 mm 1 mps 750 mmHg 38%
    10:00 +29°C° 0 mm 1 mps 749 mmHg 34%
    11:00 +31°C° 0 mm 1 mps 749 mmHg 31%
    12:00 +31°C° 0 mm 1 mps 749 mmHg 29%
    13:00 +32°C° 0 mm 1 mps 748 mmHg 26%
    14:00 +32°C° 0 mm 1 mps 747 mmHg 24%
    15:00 +31°C° 0 mm 1 mps 747 mmHg 26%
    16:00 +30°C° 0 mm 2 mps 747 mmHg 28%
    17:00 +29°C° 0 mm 2 mps 747 mmHg 31%
    18:00 +27°C° 0 mm 2 mps 747 mmHg 32%
    19:00 +26°C° 0 mm 2 mps 748 mmHg 34%
    20:00 +25°C° 0 mm 2 mps 748 mmHg 36%
    21:00 +25°C° 0 mm 2 mps 748 mmHg 37%
    22:00 +24°C° 0 mm 2 mps 748 mmHg 38%
    23:00 +23°C° 0 mm 2 mps 748 mmHg 40%

    Day after tomorrow, 15 November, Friday

    Time Temperature Precipitation Wind Pressure Humidity
    00:00 +23°C° 0 mm 1 mps 747 mmHg 40%
    01:00 +23°C° 0 mm 1 mps 747 mmHg 41%
    02:00 +22°C° 0 mm 1 mps 747 mmHg 41%
    03:00 +22°C° 0 mm 1 mps 747 mmHg 42%
    04:00 +21°C° 0 mm 1 mps 747 mmHg 43%
    05:00 +21°C° 0 mm 1 mps 747 mmHg 43%
    06:00 +22°C° 0 mm 1 mps 747 mmHg 41%
    07:00 +22°C° 0 mm 0 mps 748 mmHg 40%
    08:00 +23°C° 0 mm 0 mps 749 mmHg 38%
    09:00 +25°C° 0 mm 0 mps 749 mmHg 35%
    10:00 +27°C° 0 mm 0 mps 748 mmHg 31%
    11:00 +28°C° 0 mm 0 mps 748 mmHg 28%
    12:00 +29°C° 0 mm 0 mps 748 mmHg 26%
    13:00 +30°C° 0 mm 0 mps 747 mmHg 25%
    14:00 +30°C° 0 mm 0 mps 746 mmHg 24%
    15:00 +31°C° 0 mm 1 mps 746 mmHg 26%
    16:00 +29°C° 0 mm 1 mps 746 mmHg 28%
    17:00 +28°C° 0 mm 1 mps 745 mmHg 30%
    18:00 +27°C° 0 mm 1 mps 746 mmHg 31%
    19:00 +26°C° 0 mm 1 mps 746 mmHg 33%
    20:00 +26°C° 0 mm 1 mps 747 mmHg 34%
    21:00 +25°C° 0 mm 1 mps 747 mmHg 36%
    22:00 +22°C° 0 mm 0 mps 747 mmHg 37%
    23:00 +22°C° 0 mm 0 mps 747 mmHg 39%

    16 November, Saturday

    Time Temperature Precipitation Wind Pressure Humidity
    00:00 +21°C° 0 mm 0 mps 746 mmHg 39%
    01:00 +23°C° 0 mm 1 mps 746 mmHg 40%
    02:00 +23°C° 0 mm 1 mps 746 mmHg 41%
    03:00 +22°C° 0 mm 1 mps 746 mmHg 42%
    04:00 +22°C° 0 mm 1 mps 746 mmHg 44%
    05:00 +22°C° 0 mm 1 mps 746 mmHg 45%
    06:00 +23°C° 0 mm 1 mps 747 mmHg 43%
    07:00 +24°C° 0 mm 2 mps 747 mmHg 41%
    08:00 +25°C° 0 mm 2 mps 748 mmHg 40%
    09:00 +27°C° 0 mm 2 mps 748 mmHg 36%
    10:00 +29°C° 0 mm 2 mps 748 mmHg 32%
    11:00 +30°C° 0 mm 2 mps 748 mmHg 28%
    12:00 +31°C° 0 mm 3 mps 747 mmHg 26%
    13:00 +33°C° 0 mm 3 mps 746 mmHg 24%
    14:00 +34°C° 0 mm 3 mps 746 mmHg 23%
    15:00 +31°C° 0 mm 2 mps 746 mmHg 25%
    16:00 +29°C° 0 mm 2 mps 746 mmHg 27%
    17:00 +28°C° 0 mm 1 mps 746 mmHg 29%
    18:00 +27°C° 0 mm 1 mps 746 mmHg 31%
    19:00 +26°C° 0 mm 1 mps 747 mmHg 32%
    20:00 +25°C° 0 mm 1 mps 747 mmHg 34%
    21:00 +25°C° 0 mm 1 mps 747 mmHg 35%
    22:00 +25°C° 0 mm 1 mps 747 mmHg 36%
    23:00 +24°C° 0 mm 1 mps 747 mmHg 37%

    17 November, Sunday

    Time Temperature Precipitation Wind Pressure Humidity
    00:00 +24°C° 0 mm 1 mps 747 mmHg 39%
    01:00 +24°C° 0 mm 2 mps 747 mmHg 41%
    02:00 +23°C° 0 mm 2 mps 747 mmHg 43%
    03:00 +23°C° 0 mm 2 mps 747 mmHg 46%
    04:00 +21°C° 0 mm 2 mps 747 mmHg 49%
    05:00 +21°C° 0 mm 2 mps 747 mmHg 51%
    06:00 +22°C° 0 mm 3 mps 747 mmHg 49%
    07:00 +24°C° 0 mm 3 mps 748 mmHg 48%
    08:00 +25°C° 0 mm 3 mps 749 mmHg 46%
    09:00 +27°C° 0 mm 4 mps 748 mmHg 41%
    10:00 +29°C° 0 mm 4 mps 748 mmHg 36%
    11:00 +32°C° 0 mm 5 mps 748 mmHg 32%
    12:00 +33°C° 0 mm 5 mps 747 mmHg 31%
    13:00 +33°C° 0 mm 5 mps 747 mmHg 30%
    14:00 +34°C° 0 mm 5 mps 746 mmHg 29%
    15:00 +32°C° 0 mm 4 mps 746 mmHg 32%
    16:00 +30°C° 0 mm 3 mps 746 mmHg 35%
    17:00 +28°C° 0 mm 3 mps 746 mmHg 38%
    18:00 +27°C° 0 mm 3 mps 746 mmHg 40%
    19:00 +27°C° 0 mm 3 mps 747 mmHg 41%
    20:00 +26°C° 0 mm 3 mps 747 mmHg 43%
    21:00 +25°C° 0 mm 3 mps 747 mmHg 45%
    22:00 +25°C° 0 mm 3 mps 747 mmHg 46%
    23:00 +24°C° 0 mm 3 mps 747 mmHg 48%

    18 November, Monday

    Time Temperature Precipitation Wind Pressure Humidity
    00:00 +24°C° 0 mm 3 mps 747 mmHg 49%
    01:00 +22°C° 0 mm 3 mps 746 mmHg 50%
    02:00 +21°C° 0 mm 3 mps 746 mmHg 51%
    03:00 +21°C° 0 mm 3 mps 746 mmHg 52%
    04:00 +21°C° 0 mm 2 mps 746 mmHg 53%
    05:00 +20°C° 0 mm 2 mps 746 mmHg 54%
    06:00 +21°C° 0 mm 2 mps 747 mmHg 51%
    07:00 +24°C° 0 mm 2 mps 748 mmHg 48%
    08:00 +25°C° 0 mm 2 mps 748 mmHg 45%
    09:00 +27°C° 0 mm 2 mps 748 mmHg 39%
    10:00 +28°C° 0 mm 3 mps 748 mmHg 34%
    11:00 +30°C° 0 mm 3 mps 748 mmHg 29%
    12:00 +31°C° 0 mm 3 mps 747 mmHg 28%
    13:00 +32°C° 0 mm 4 mps 746 mmHg 27%
    14:00 +33°C° 0 mm 4 mps 746 mmHg 26%
    15:00 +30°C° 0 mm 3 mps 746 mmHg 29%
    16:00 +29°C° 0 mm 3 mps 746 mmHg 32%
    17:00 +27°C° 0 mm 2 mps 746 mmHg 35%
    18:00 +26°C° 0 mm 2 mps 746 mmHg 36%
    19:00 +26°C° 0 mm 2 mps 746 mmHg 38%
    20:00 +25°C° 0 mm 1 mps 747 mmHg 40%
    21:00 +24°C° 0 mm 1 mps 747 mmHg 41%
    22:00 +24°C° 0 mm 1 mps 746 mmHg 42%
    23:00 +23°C° 0 mm 1 mps 746 mmHg 43%
    Show more